Weather History for Monroe, WI

Change the Weather History Date:

Tuesday, August 6, 2013

  Actual Average Record
Temperature  
Mean Temperature 73 °F -  
Max Temperature 82 °F 86 °F 87 °F (2001)
Min Temperature 65 °F 54 °F 21 °F (1998)
Cooling Degree Days 8    
Growing Degree Days 23 (Base 50)    
Moisture  
Dew Point 69 °F    
Average Humidity 88    
Maximum Humidity 100    
Minimum Humidity 62    
Precipitation  
Precipitation 0.01 in - - ()
Sea Level Pressure  
Sea Level Pressure 29.86 in    
Wind  
Wind Speed 5 mph (SSW)    
Max Wind Speed 14 mph    
Max Gust Speed 20 mph    
Visibility 7 miles    
Events Fog , Thunderstorm    
Averages and records for this station are not official NWS values.
T = Trace of Precipitation, MM = Missing Value Source: NWS Daily Summary

Daily Weather History Graph

Daily Weather History Graph

Search for Another Location

Airport:

Trip Planner

Search our weather history database for the weather conditions in past years. The results will help you decide how hot, cold, wet, or windy it might be!

Date:

Astronomy

Aug. 06, 2013 Rise Set
Actual Time 5:55 AM CDT 8:12 PM CDT
Civil Twilight 5:24 AM CDT 8:43 PM CDT
Nautical Twilight 4:45 AM CDT 9:21 PM CDT
Astronomical Twilight 4:02 AM CDT 10:04 PM CDT
Moon 5:48 AM CDT (8/6) 7:44 PM CDT (8/6)
Length of Visible Light 15h 18m
Length of Day
14h 16m
Waning Crescent, 0% of the Moon is Illuminated
Aug 6
Waning Crescent
Aug 6
New
Aug 14
First Quarter
Aug 20
Full
Aug 28
Last Quarter

Hourly Weather History & Observations

Time (CDT) Temp. Heat Index Dew Point Humidity Pressure Visibility Wind Dir Wind Speed Gust Speed Precip Events Conditions
12:15 AM 66.2 °F - 66.2 °F 100% 29.87 in 5.0 mi South 4.6 mph - N/A   Mostly Cloudy
12:35 AM 65.8 °F - 65.8 °F 100% 29.87 in 4.0 mi SSE 5.8 mph - N/A   Mostly Cloudy
12:55 AM 66.4 °F - 66.4 °F 100% 29.87 in 5.0 mi Calm Calm - N/A   Overcast
1:15 AM 66.6 °F - 66.6 °F 100% 29.87 in 7.0 mi South 5.8 mph - N/A   Overcast
1:35 AM 66.6 °F - 66.6 °F 100% 29.88 in 7.0 mi Calm Calm - N/A Thunderstorm Overcast
1:55 AM 66.4 °F - 66.4 °F 100% 29.87 in 5.0 mi South 5.8 mph - N/A   Overcast
2:15 AM 66.4 °F - 66.4 °F 100% 29.87 in 5.0 mi SSW 3.5 mph - N/A   Overcast
2:35 AM 66.4 °F - 66.4 °F 100% 29.87 in 5.0 mi SW 4.6 mph - N/A   Mostly Cloudy
2:55 AM 66.7 °F - 66.7 °F 100% 29.85 in 5.0 mi WSW 3.5 mph - N/A Thunderstorm Overcast
3:15 AM 67.5 °F - 67.5 °F 100% 29.85 in 7.0 mi West 3.5 mph - N/A   Overcast
3:35 AM 68.0 °F - 68.0 °F 100% 29.84 in 5.0 mi SSW 3.5 mph - N/A   Overcast
3:55 AM 68.2 °F - 68.2 °F 100% 29.84 in 5.0 mi SW 3.5 mph - N/A   Overcast
4:15 AM 68.4 °F - 68.4 °F 100% 29.84 in 3.0 mi Calm Calm - N/A   Overcast
4:35 AM 66.9 °F - 66.9 °F 100% 29.84 in 0.5 mi Calm Calm - N/A Fog Fog
4:55 AM 66.6 °F - 66.6 °F 100% 29.84 in 0.5 mi Calm Calm - N/A Fog Fog
5:15 AM 66.7 °F - 66.7 °F 100% 29.85 in 0.2 mi Calm Calm - N/A Fog Fog
5:35 AM 67.1 °F - 67.1 °F 100% 29.85 in 0.2 mi Calm Calm - N/A Fog Fog
5:55 AM 67.1 °F - 67.1 °F 100% 29.85 in 0.2 mi Calm Calm - N/A Fog Fog
6:15 AM 67.3 °F - 67.3 °F 100% 29.85 in 0.2 mi Calm Calm - N/A Fog Fog
6:35 AM 68.0 °F - 68.0 °F 100% 29.86 in 0.5 mi Calm Calm - N/A Fog Fog
6:55 AM 68.0 °F - 68.0 °F 100% 29.86 in 0.2 mi Calm Calm - N/A Fog Fog
7:15 AM 68.2 °F - 68.2 °F 100% 29.87 in 0.5 mi Calm Calm - N/A Fog Fog
7:35 AM 68.5 °F - 68.5 °F 100% 29.87 in 0.5 mi SSE 3.5 mph - N/A Fog Fog
7:55 AM 68.9 °F - 68.9 °F 100% 29.88 in 2.0 mi Calm Calm - N/A   Overcast
8:15 AM 69.4 °F - 69.4 °F 100% 29.89 in 3.0 mi SSW 3.5 mph - N/A   Overcast
8:35 AM 69.8 °F - 69.8 °F 100% 29.90 in 4.0 mi South 5.8 mph - N/A   Overcast
8:55 AM 70.0 °F - 70.0 °F 100% 29.90 in 5.0 mi Calm Calm - N/A   Overcast
9:15 AM 71.8 °F - 71.8 °F 100% 29.89 in 5.0 mi SSW 5.8 mph - N/A   Overcast
9:35 AM 72.0 °F - 72.0 °F 100% 29.90 in 7.0 mi SSW 5.8 mph - N/A   Overcast
9:55 AM 73.8 °F - 73.8 °F 100% 29.90 in 10.0 mi South 8.1 mph - N/A   Overcast
10:15 AM 74.7 °F - 72.1 °F 92% 29.90 in 10.0 mi South 9.2 mph - N/A   Overcast
10:35 AM 74.5 °F - 73.4 °F 96% 29.89 in 10.0 mi SSW 8.1 mph - N/A   Overcast
10:55 AM 76.6 °F - 70.2 °F 80% 29.89 in 10.0 mi SW 9.2 mph - N/A   Mostly Cloudy
11:15 AM 77.9 °F - 66.7 °F 68% 29.89 in 10.0 mi SW 9.2 mph - N/A   Mostly Cloudy
11:35 AM 77.7 °F - 67.1 °F 70% 29.89 in 10.0 mi WSW 8.1 mph - N/A   Overcast
11:55 AM 79.0 °F - 67.1 °F 67% 29.89 in 10.0 mi SSW 11.5 mph 17.3 mph N/A   Overcast
12:15 PM 78.8 °F - 66.9 °F 67% 29.88 in 10.0 mi SSW 5.8 mph - N/A   Mostly Cloudy
12:35 PM 79.7 °F - 66.7 °F 64% 29.88 in 10.0 mi SSW 9.2 mph - N/A   Scattered Clouds
12:55 PM 79.0 °F - 68.2 °F 69% 29.87 in 10.0 mi SSW 12.7 mph 19.6 mph N/A   Mostly Cloudy
1:15 PM 79.3 °F - 67.5 °F 67% 29.86 in 10.0 mi SW 12.7 mph - N/A   Scattered Clouds
1:35 PM 79.7 °F - 68.2 °F 68% 29.86 in 10.0 mi SSW 10.4 mph - N/A   Scattered Clouds
1:55 PM 79.5 °F - 69.1 °F 70% 29.86 in 10.0 mi SSW 13.8 mph - N/A   Mostly Cloudy
2:15 PM 79.0 °F - 70.3 °F 75% 29.85 in 10.0 mi South 10.4 mph - N/A   Mostly Cloudy
2:35 PM 79.3 °F - 68.7 °F 70% 29.85 in 10.0 mi SSW 10.4 mph - N/A   Mostly Cloudy
2:55 PM 79.5 °F - 71.2 °F 76% 29.84 in 10.0 mi South 9.2 mph - N/A   Mostly Cloudy
3:15 PM 79.9 °F - 71.8 °F 76% 29.83 in 10.0 mi South 9.2 mph - N/A   Mostly Cloudy
3:35 PM 79.0 °F - 69.1 °F 72% 29.84 in 10.0 mi South 12.7 mph - N/A   Mostly Cloudy
3:55 PM 79.9 °F - 69.1 °F 69% 29.83 in 10.0 mi SSW 12.7 mph - N/A   Mostly Cloudy
4:15 PM 81.1 °F 84.0 °F 68.2 °F 65% 29.83 in 10.0 mi SW 10.4 mph - N/A   Scattered Clouds
4:35 PM 81.5 °F 84.4 °F 68.4 °F 64% 29.84 in 10.0 mi SSW 10.4 mph - N/A   Scattered Clouds
4:55 PM 81.7 °F 84.3 °F 67.6 °F 62% 29.84 in 10.0 mi SSW 9.2 mph - N/A   Scattered Clouds
5:15 PM 80.8 °F 83.5 °F 67.8 °F 65% 29.84 in 10.0 mi SSW 6.9 mph - N/A   Scattered Clouds
5:35 PM 81.0 °F 83.6 °F 67.6 °F 64% 29.84 in 10.0 mi SW 9.2 mph - N/A   Mostly Cloudy
5:55 PM 81.9 °F 84.6 °F 67.5 °F 62% 29.85 in 10.0 mi SSW 8.1 mph - N/A   Scattered Clouds
6:15 PM 81.3 °F 84.0 °F 67.8 °F 63% 29.84 in 10.0 mi SSW 8.1 mph - N/A   Scattered Clouds
6:35 PM 80.8 °F 83.5 °F 68.2 °F 65% 29.85 in 10.0 mi SSW 5.8 mph - N/A   Clear
6:55 PM 80.6 °F 83.4 °F 68.4 °F 66% 29.84 in 10.0 mi SSW 6.9 mph - N/A   Clear
7:15 PM 79.7 °F - 68.9 °F 69% 29.84 in 10.0 mi SSW 5.8 mph - N/A   Clear
7:35 PM 78.8 °F - 69.4 °F 73% 29.83 in 10.0 mi SSW 6.9 mph - N/A   Clear
7:55 PM 77.7 °F - 73.9 °F 88% 29.83 in 10.0 mi South 5.8 mph - N/A   Clear
8:15 PM 76.3 °F - 75.2 °F 96% 29.83 in 10.0 mi SSW 6.9 mph - N/A   Clear
8:35 PM 75.2 °F - 75.2 °F 100% 29.83 in 10.0 mi South 8.1 mph - N/A   Clear
8:55 PM 74.5 °F - 74.5 °F 100% 29.83 in 10.0 mi South 8.1 mph - N/A   Clear
9:15 PM 74.3 °F - 74.3 °F 100% 29.83 in 10.0 mi South 9.2 mph - N/A   Clear
9:35 PM 74.3 °F - 74.3 °F 100% 29.83 in 7.0 mi SSW 10.4 mph - N/A   Clear
9:55 PM 73.9 °F - 73.9 °F 100% 29.84 in 7.0 mi SSW 9.2 mph - N/A   Clear
10:15 PM 73.6 °F - 73.6 °F 100% 29.85 in 7.0 mi SSW 9.2 mph - N/A   Clear
10:35 PM 73.4 °F - 73.4 °F 100% 29.84 in 7.0 mi SSW 9.2 mph - N/A   Clear
10:55 PM 72.9 °F - 72.9 °F 100% 29.83 in 5.0 mi South 10.4 mph - N/A   Clear
11:15 PM 72.7 °F - 72.7 °F 100% 29.83 in 5.0 mi South 10.4 mph - N/A   Clear
11:35 PM 73.0 °F - 73.0 °F 100% 29.82 in 5.0 mi South 10.4 mph - N/A   Clear
11:55 PM 73.4 °F - 73.4 °F 100% 29.82 in 5.0 mi SSW 10.4 mph - N/A   Clear